Theta_e
348 342 340 336 335 335 335 335 329 323 318 314 311 312 313 314 315 316 318 318 318 318 318 318 316 315 315 316 315 314 314 317 320 325 328 333 336 335 336 337 338 338 338 338 337 337 337 337 336 336 336 332 327 323 322 318 312 316 325 330 331 332 332 332 332 328 326 324 323 323 321 317 313 311 312 313 320 328 328 326 321 316 313 313 313
347 342 341 337 335 335 335 335 330 324 318 315 312 311 313 314 316 316 318 317 317 317 318 317 315 315 315 314 313 313 315 318 323 328 330 332 334 335 336 338 338 338 337 338 338 337 336 336 336 336 333 328 324 323 322 317 311 313 321 326 329 330 331 331 328 323 319 319 319 319 315 311 309 309 310 315 321 325 323 320 316 313 312 312 311
346 342 341 337 335 335 335 335 330 325 319 316 312 311 312 314 316 317 318 317 317 317 317 316 315 315 314 313 313 313 316 321 327 330 330 332 334 336 337 338 338 338 338 337 336 336 336 336 336 335 332 327 325 325 323 318 314 313 316 319 321 323 324 322 318 315 314 314 314 312 310 309 309 309 311 315 318 319 318 316 314 312 311 310 310
345 342 341 337 336 335 335 335 331 326 321 317 313 311 312 315 316 317 318 317 316 317 317 316 315 314 314 313 313 314 318 325 330 330 332 334 336 337 338 338 338 338 337 336 335 335 335 336 336 335 333 329 326 327 325 321 319 314 312 312 312 313 313 313 311 310 310 310 310 309 308 308 308 309 310 312 313 314 313 312 311 310 309 309 309
344 342 340 337 336 335 336 335 331 328 322 317 313 311 312 314 316 317 319 317 317 318 318 317 316 315 314 314 314 316 320 327 330 330 333 336 337 338 338 337 338 337 336 336 336 335 335 335 334 334 332 328 328 330 325 322 323 320 316 312 309 309 309 309 309 309 308 309 309 310 312 310 309 310 310 310 310 311 310 310 310 309 310 310 310
344 341 339 337 336 336 336 335 332 328 323 318 314 311 311 314 316 318 319 318 317 318 319 318 318 318 319 318 317 317 321 326 328 331 334 337 337 338 338 337 337 337 336 337 336 335 335 335 334 332 329 327 329 331 326 323 325 325 320 312 309 308 308 308 308 308 308 309 309 311 313 311 309 309 310 310 310 310 310 310 310 310 310 310 310
343 340 338 337 336 336 336 335 332 329 324 319 314 312 311 314 316 318 320 318 317 320 322 324 326 327 329 328 325 323 325 328 330 334 336 337 338 338 338 337 337 337 337 337 337 336 335 335 334 330 326 328 330 330 328 326 325 324 320 312 310 308 307 308 308 309 309 310 310 311 314 312 310 310 310 310 310 310 310 310 311 311 311 312 312
341 339 338 337 336 336 336 335 332 329 325 320 316 312 311 314 316 318 320 319 319 323 328 331 333 333 334 335 334 333 333 335 335 336 336 337 338 338 338 337 337 337 337 337 337 337 336 336 334 326 323 326 326 327 329 328 325 321 318 313 311 309 308 309 309 310 310 311 312 312 315 314 310 310 310 310 310 310 311 311 311 311 312 312 312
340 338 338 337 336 336 336 335 332 330 327 323 318 313 311 312 316 318 320 321 321 327 332 333 334 334 335 336 337 337 337 337 337 337 337 337 337 338 338 337 337 337 337 337 337 337 337 336 332 323 321 324 322 323 326 326 322 318 316 314 312 310 309 309 310 311 311 312 312 315 320 321 318 312 311 312 311 311 312 312 312 312 312 312 312
339 338 338 336 336 335 335 335 333 331 329 326 321 315 311 311 315 318 320 322 323 328 333 333 334 335 335 336 337 338 337 337 337 337 337 337 337 337 337 336 336 336 336 336 336 335 333 330 326 319 319 321 320 321 322 321 319 317 317 316 313 312 311 312 313 313 312 311 312 314 317 321 322 317 313 315 313 313 313 312 313 312 313 312 312
339 338 337 336 336 335 335 335 334 332 331 328 323 317 311 311 313 317 319 321 324 327 331 332 334 336 335 336 337 337 337 337 337 336 336 336 336 336 335 335 335 335 334 334 331 325 319 317 315 315 319 320 319 319 320 320 319 318 318 316 314 313 313 313 312 312 312 312 312 312 313 318 319 315 314 315 313 313 312 312 312 312 312 312 312
339 337 337 336 336 336 336 336 335 333 332 330 327 319 313 310 311 315 319 321 324 326 329 331 334 336 336 336 337 337 337 337 337 336 336 335 334 333 332 330 330 330 328 326 320 312 309 309 310 314 318 319 319 321 321 320 318 317 317 316 314 312 312 312 311 311 312 313 312 312 316 321 317 313 313 313 312 312 312 312 312 312 312 312 312
338 337 337 337 336 336 336 336 335 334 333 331 329 323 315 312 310 313 318 321 324 326 327 331 334 335 336 336 337 337 337 337 336 336 335 334 333 332 330 324 320 320 318 314 310 307 308 307 310 315 317 318 320 321 321 320 319 317 316 315 313 312 311 311 312 312 312 312 313 312 314 317 314 312 313 312 312 312 312 312 312 312 312 312 311
337 337 337 336 336 336 336 336 336 335 334 332 330 326 318 313 310 311 317 320 323 325 326 331 334 335 336 337 336 336 336 336 336 335 333 332 331 330 327 321 315 313 311 309 308 308 308 308 312 317 317 318 320 320 321 321 320 318 315 314 313 312 312 312 312 312 312 312 312 313 313 313 313 313 313 312 313 312 312 312 313 312 312 312 311
337 337 336 336 336 336 336 336 336 335 334 332 330 327 321 314 311 310 314 319 322 323 327 333 335 335 336 336 336 335 336 335 335 334 332 330 330 328 325 320 314 310 309 309 308 308 308 310 315 319 318 319 320 320 322 322 321 318 316 314 313 312 312 312 312 312 312 312 312 312 313 313 313 313 314 314 314 314 314 314 313 313 313 312 311
337 336 336 336 336 336 336 336 335 335 334 332 330 328 322 315 311 310 312 315 319 322 327 333 335 335 335 335 335 335 335 335 335 334 332 331 331 329 325 319 313 310 310 309 308 308 309 313 319 321 319 319 320 321 323 323 320 318 316 314 313 313 312 311 311 312 312 312 313 313 314 314 314 315 316 316 316 316 316 316 315 314 314 313 312
336 336 335 335 336 335 335 335 335 335 334 332 330 328 323 316 311 310 311 312 316 321 326 332 334 334 333 334 335 335 335 335 334 334 333 332 332 329 323 318 313 310 309 308 308 308 310 316 321 322 320 320 321 322 324 323 321 319 317 315 314 313 312 312 312 312 313 314 315 315 315 315 316 316 317 317 317 317 317 317 316 316 316 315 314
336 335 335 335 335 335 335 334 333 334 333 331 329 327 323 316 311 309 310 311 314 321 326 330 333 333 332 332 334 334 334 335 334 334 333 332 331 327 320 316 313 310 309 308 308 308 312 319 322 323 322 321 322 323 325 325 323 320 318 316 315 314 313 313 313 314 314 315 316 317 317 317 317 317 317 317 316 317 318 318 318 318 317 316 314
337 337 337 335 334 333 333 332 331 331 330 329 327 326 322 314 310 309 310 310 317 324 327 330 330 330 331 332 332 331 332 333 333 333 332 331 328 324 318 315 312 311 309 308 308 308 312 320 323 324 323 323 324 324 325 326 325 323 320 318 317 316 315 315 315 315 315 315 316 317 317 317 317 317 317 317 318 318 319 319 319 318 317 315 313
338 338 337 334 333 331 330 329 329 329 328 327 325 325 319 313 309 309 309 310 321 328 325 328 329 329 331 331 331 331 331 331 331 332 331 329 326 321 317 315 313 312 310 308 308 308 313 320 323 324 324 325 325 326 327 327 326 324 322 321 321 319 318 318 317 317 317 317 317 318 318 318 318 318 318 318 319 320 321 321 320 319 316 314 312
338 337 335 332 331 330 328 327 327 326 326 325 324 322 316 312 309 309 309 309 322 328 322 324 328 329 331 331 331 331 331 331 331 331 328 327 325 321 316 315 315 313 311 309 309 309 313 319 323 324 325 326 327 328 328 327 326 326 324 324 324 324 322 321 320 319 319 319 318 318 318 318 319 318 319 319 320 321 321 322 321 318 316 314 312
338 335 332 330 329 328 326 324 323 322 322 322 321 319 315 313 311 309 309 309 316 321 323 326 328 330 331 330 331 330 330 330 330 328 325 326 326 322 316 315 315 315 313 310 309 310 313 318 323 325 326 327 328 329 329 328 326 326 326 326 327 327 326 324 323 322 322 322 321 320 320 320 321 320 320 320 320 321 322 323 321 319 316 313 312
337 333 331 329 327 325 323 321 320 320 320 319 318 317 314 314 313 310 309 309 310 314 321 324 324 326 326 326 326 326 326 325 325 323 322 324 324 323 319 316 316 316 315 312 310 310 313 318 323 326 327 328 329 330 330 329 327 327 327 327 328 328 328 327 326 325 324 324 323 322 321 322 323 322 321 320 321 322 323 324 322 319 317 313 312
335 332 330 327 325 322 320 319 319 319 318 317 317 315 314 314 314 312 310 310 309 310 315 315 316 318 319 320 321 321 321 320 319 318 319 320 322 323 321 319 316 316 316 315 312 310 311 317 323 326 328 329 329 330 330 330 329 328 327 327 328 328 328 328 327 327 325 324 324 324 322 322 323 323 323 321 321 323 324 324 322 319 317 314 313
335 332 329 325 322 320 319 319 319 319 318 317 316 315 315 314 314 314 312 312 311 309 311 312 313 314 315 316 317 319 318 317 316 316 317 318 320 321 322 322 320 318 317 317 315 312 310 313 320 326 328 329 330 330 330 331 330 329 327 327 329 328 328 328 327 327 326 325 324 324 323 323 324 324 324 323 322 323 325 324 322 319 316 315 313
335 332 329 325 321 320 319 319 319 318 317 316 315 315 314 314 314 313 313 312 311 310 310 312 313 313 313 314 315 317 318 318 318 318 318 319 321 321 321 322 322 322 320 319 318 316 313 310 313 321 328 330 331 331 331 331 331 331 329 328 329 329 328 328 328 328 327 326 326 326 326 327 326 325 325 324 323 323 325 325 323 319 316 315 313
336 333 328 325 322 320 320 319 318 317 316 315 314 314 314 314 314 314 314 313 312 313 313 314 314 314 313 313 314 319 324 326 326 326 325 326 328 328 327 324 322 322 322 322 321 320 318 314 311 312 321 329 331 331 331 331 331 331 331 330 330 330 329 329 329 329 329 328 329 329 329 329 328 327 326 326 325 324 325 325 324 320 317 316 313
335 333 329 325 322 321 320 319 318 316 316 317 317 317 318 319 319 320 320 319 319 321 321 319 315 314 316 319 321 325 330 331 332 333 332 332 333 334 334 332 329 327 324 323 323 322 322 321 317 312 312 320 329 332 331 331 331 331 332 331 331 331 330 329 330 331 330 330 330 331 331 330 330 329 329 328 325 324 325 326 325 321 317 316 313
335 333 329 326 323 322 321 320 318 318 320 322 322 324 325 326 326 326 327 326 326 328 329 328 324 321 321 325 329 332 333 334 335 335 335 335 335 335 335 335 335 334 332 330 327 324 323 323 323 319 313 312 320 329 332 331 331 332 332 332 332 332 331 330 330 331 331 331 331 331 331 331 331 330 330 329 327 325 325 326 326 323 319 315 312
335 333 330 327 324 323 322 320 319 321 325 327 327 328 329 330 329 329 329 329 328 330 332 333 333 332 330 330 332 333 334 335 335 335 334 335 335 335 335 335 335 335 335 335 333 329 325 323 324 324 321 313 313 323 330 331 331 332 331 331 332 332 331 331 331 331 331 332 332 332 332 332 331 331 330 330 328 325 325 326 326 324 319 315 312
335 333 331 328 326 324 322 319 320 325 328 330 330 330 330 331 331 331 332 331 330 330 332 334 335 336 336 335 335 335 335 335 335 335 334 334 335 335 335 335 335 334 334 334 335 334 330 325 323 325 325 320 313 315 325 330 330 330 331 331 332 332 331 332 332 332 333 332 332 332 332 332 332 331 331 330 329 326 325 326 326 323 319 315 312
334 333 332 329 327 325 323 321 323 327 329 331 332 331 332 332 333 334 335 335 334 333 333 334 336 337 337 336 336 336 335 335 335 334 334 334 334 334 335 334 334 334 334 334 334 335 334 330 324 323 324 325 319 315 320 328 329 329 330 331 331 332 332 333 333 333 333 333 333 332 332 332 332 331 331 330 330 329 326 326 327 325 320 316 312
335 334 333 332 329 327 324 324 325 327 330 332 333 334 334 335 336 337 337 337 337 337 337 337 337 337 337 336 335 335 334 334 334 334 334 334 333 333 333 333 333 333 333 333 333 334 335 334 330 325 323 324 324 320 321 326 329 330 330 330 329 330 331 332 333 333 334 334 333 332 332 332 331 331 331 331 331 330 328 326 327 326 322 316 312
335 335 336 335 331 328 327 327 328 331 333 335 336 336 336 337 337 337 337 337 337 338 337 337 336 336 336 335 334 334 333 333 333 333 333 333 333 333 333 332 332 332 332 332 332 333 333 334 334 332 329 326 325 324 323 325 327 329 330 330 329 328 329 331 333 333 333 333 333 332 332 331 331 331 331 331 331 330 329 327 326 327 324 316 313
337 337 339 337 333 332 330 331 333 335 337 337 337 337 337 337 337 337 337 337 337 336 336 336 335 335 334 334 333 333 333 333 333 333 332 332 333 333 333 332 332 332 332 332 332 332 333 333 333 333 333 331 329 326 324 324 326 329 329 329 329 328 328 331 331 331 330 331 331 332 332 331 331 331 331 331 331 331 330 328 326 327 326 318 313
340 339 340 338 336 336 336 335 336 338 338 337 338 337 336 336 336 336 336 336 336 335 335 334 334 334 334 334 334 334 334 334 334 333 333 333 333 333 332 332 333 333 333 332 332 331 331 332 332 332 333 333 332 330 327 326 325 326 328 328 328 328 329 330 329 327 327 327 329 331 332 332 331 331 331 331 331 331 330 329 327 327 327 321 314
341 340 341 339 338 340 340 338 337 338 338 337 337 336 336 335 335 335 335 335 335 334 334 334 334 334 335 335 335 335 334 334 334 334 333 334 333 333 334 333 333 333 333 333 332 332 331 330 331 332 332 332 333 332 331 329 327 324 324 324 325 325 327 328 327 326 324 322 324 328 330 330 331 331 331 331 331 331 330 330 329 327 328 324 316
340 340 341 340 340 341 341 340 338 338 338 337 336 336 335 334 335 335 335 335 334 334 334 334 335 335 335 335 334 334 334 334 333 333 332 333 333 333 334 334 333 333 333 333 332 332 331 330 330 331 331 332 332 332 332 332 331 328 325 324 324 323 325 326 326 326 324 322 323 326 328 329 330 330 331 331 331 331 330 330 329 328 328 326 319
339 339 340 340 341 341 341 340 338 338 337 336 336 335 335 335 335 335 335 335 335 335 335 335 335 335 335 335 334 334 334 333 332 332 332 332 332 332 332 332 331 331 331 331 331 331 331 330 330 330 330 330 330 331 332 331 332 331 330 329 328 328 328 329 329 328 328 327 326 325 326 328 329 330 331 331 331 331 331 330 329 329 329 327 322
338 338 339 340 341 340 339 338 337 336 335 335 335 335 336 335 335 335 335 335 335 335 335 335 335 335 335 335 334 334 333 332 332 332 332 331 331 330 330 330 329 329 329 330 331 332 331 331 331 330 330 330 330 330 331 332 332 331 331 330 330 330 330 330 329 329 329 328 328 325 324 326 328 330 331 331 331 331 330 330 329 329 329 329 324
339 339 340 340 339 338 337 336 335 335 335 335 335 335 335 335 335 336 336 336 336 336 336 336 336 336 335 335 334 334 332 331 331 332 331 330 330 329 328 327 327 327 329 330 332 332 332 331 331 330 330 331 331 331 331 332 332 332 331 330 330 329 329 328 328 327 327 327 328 328 326 326 327 329 330 331 331 331 330 330 330 329 329 329 327
339 339 339 339 338 336 336 335 335 335 335 336 335 335 335 335 336 336 336 336 336 336 336 336 336 336 335 335 334 333 332 331 332 332 332 331 330 330 329 328 328 329 329 330 331 331 331 332 332 331 331 331 331 332 332 331 332 332 332 331 330 330 329 328 327 326 326 327 328 329 329 329 328 329 330 331 331 330 330 330 330 330 329 329 328
339 339 338 338 337 336 336 335 335 335 336 336 336 336 335 336 336 335 336 336 336 336 335 335 336 336 335 334 334 333 333 333 333 332 331 331 331 331 331 330 331 331 331 331 331 331 332 331 332 332 332 332 332 331 331 331 331 331 331 331 331 331 330 329 328 326 326 327 327 328 328 329 330 330 330 331 331 330 330 330 330 330 330 329 329
337 337 337 336 336 336 336 335 335 336 335 335 335 335 334 335 335 334 334 334 335 335 334 335 335 335 335 334 334 334 334 333 332 333 332 332 331 331 332 332 332 332 332 332 332 332 332 331 332 331 331 332 331 331 330 330 330 330 331 331 331 330 330 330 330 328 327 327 327 328 327 327 328 329 329 329 330 330 331 330 330 329 329 329 330
336 336 336 335 335 335 335 335 335 335 335 334 334 333 333 334 334 333 334 334 335 335 335 335 334 333 332 332 332 332 331 331 331 331 332 332 331 331 331 331 331 331 331 331 331 332 332 332 331 331 331 331 331 331 330 330 330 330 330 330 330 330 330 329 329 329 328 328 328 328 328 328 328 327 328 328 328 330 331 331 331 330 329 330 330
335 335 334 334 334 334 334 334 334 334 334 333 333 333 333 333 333 333 334 334 334 333 333 332 331 330 330 330 330 330 329 329 329 329 329 330 330 330 330 329 329 329 329 330 330 331 332 332 332 331 331 331 331 331 330 332 332 331 330 330 330 330 330 330 329 329 329 329 328 328 328 328 328 328 328 328 328 328 329 330 331 330 330 330 330
334 334 333 333 333 333 333 333 332 332 332 332 332 333 332 332 332 332 332 332 331 331 331 330 329 330 330 330 329 329 329 328 328 328 328 328 328 328 328 327 327 326 327 329 330 331 331 331 331 331 331 331 331 330 330 331 332 331 330 329 330 329 329 330 330 330 329 329 329 329 328 328 328 328 328 328 328 327 327 328 329 330 330 330 330
332 333 333 332 332 332 332 331 331 331 330 330 330 330 330 330 330 329 329 329 329 329 329 329 329 329 329 329 328 329 328 328 328 327 327 327 327 327 327 326 326 325 326 328 329 329 329 330 330 330 330 330 330 330 330 330 330 330 329 329 329 329 329 329 329 329 329 329 329 329 329 329 328 328 328 328 328 328 327 327 328 329 330 330 330
332 332 332 331 331 331 331 330 330 330 329 329 329 329 328 328 328 328 328 328 328 328 328 328 329 329 328 328 328 328 328 328 327 326 326 325 325 325 325 325 325 325 325 326 326 326 327 327 328 329 329 329 329 329 329 329 329 329 329 329 329 329 329 329 328 328 329 329 328 329 329 329 329 328 328 328 328 328 327 328 328 329 329 330 330
331 332 332 331 330 330 330 330 330 329 329 328 328 328 327 327 327 327 327 328 327 327 327 328 328 327 327 327 327 327 326 325 325 325 325 324 323 323 324 324 324 323 324 324 323 325 327 326 325 326 328 328 329 329 329 329 328 328 328 329 329 329 329 329 329 328 329 329 328 328 329 329 328 328 328 328 328 328 327 327 328 328 329 329 329
331 332 332 331 330 329 329 330 329 328 328 327 327 326 326 326 326 326 326 327 327 327 326 326 327 326 326 326 326 325 324 324 323 323 322 322 322 322 322 322 322 322 322 322 321 323 325 325 324 325 327 328 328 328 328 328 328 328 328 328 328 328 329 329 329 329 328 329 328 328 328 328 328 327 328 328 328 328 328 326 326 327 328 329 328
Wind_Speed
27 26 22 22 19 18 15 13 11 10 10 10 11 11 11 11 12 12 13 13 13 13 14 14 13 13 14 14 14 14 15 15 15 15 16 16 16 15 15 15 15 14 13 13 14 13 13 13 12 11 10 10 9 9 10 10 10 11 13 13 14 14 13 13 13 12 11 9 8 8 8 8 8 8 9 11 11 11 10 9 9 9 9 10 9
29 27 23 22 21 19 16 13 11 10 9 9 10 10 11 11 11 12 13 14 14 14 15 15 14 14 13 13 14 14 15 15 15 15 16 16 16 15 15 15 14 14 13 13 13 13 12 12 11 11 10 10 10 11 11 11 11 12 13 13 13 13 13 12 11 10 10 9 9 9 9 9 10 12 13 13 13 12 10 9 8 8 9 9 9
29 28 24 22 21 20 17 14 11 10 9 9 9 10 10 10 10 11 13 14 15 15 15 15 15 14 13 13 13 14 15 15 15 15 15 15 15 15 15 14 14 13 13 12 12 11 11 11 11 10 11 11 11 10 11 11 12 12 13 12 12 12 11 10 9 8 9 10 10 11 12 13 13 14 14 14 14 12 10 9 9 8 9 9 9
29 28 25 23 22 20 17 14 12 10 9 8 9 10 10 10 10 10 12 14 15 15 16 16 15 14 13 13 13 14 15 15 15 15 14 14 14 14 14 14 13 12 12 11 10 10 10 10 10 10 10 10 10 10 10 11 12 12 12 11 11 11 10 9 9 9 11 12 12 14 15 16 16 16 15 14 13 12 11 10 9 9 9 10 10
29 28 26 24 22 20 17 14 13 11 9 9 8 9 10 10 10 10 12 13 14 15 16 16 15 14 14 13 13 13 14 15 14 14 14 14 14 14 13 13 13 12 11 11 10 9 9 9 9 9 8 8 9 10 11 12 12 12 11 11 11 11 11 10 11 11 12 13 15 16 17 17 17 16 16 15 14 13 12 11 10 10 10 10 10
29 28 26 24 22 20 17 15 13 11 10 9 9 9 9 10 10 10 11 13 14 15 15 15 15 14 14 13 13 13 14 14 13 13 13 13 13 13 13 12 12 12 11 11 10 9 8 8 7 7 7 8 8 9 10 12 12 11 11 13 12 12 12 12 12 13 14 16 18 18 17 17 16 15 15 15 14 13 12 12 11 11 11 11 11
29 26 25 23 22 20 17 15 13 11 10 9 9 9 9 10 10 10 11 13 14 15 15 14 14 13 13 13 13 13 13 12 12 12 12 13 13 12 12 11 11 11 10 10 10 8 8 7 6 6 7 8 8 8 10 10 10 10 12 14 13 13 13 14 15 16 17 18 19 18 16 16 16 15 15 15 14 13 12 12 12 12 12 11 11
28 26 24 23 22 21 18 15 13 12 10 9 9 9 10 10 10 10 11 12 13 14 14 13 13 12 12 12 12 12 12 11 11 12 12 13 12 12 11 11 10 10 10 10 9 8 7 7 6 5 5 6 6 7 9 9 8 9 12 13 13 14 14 15 17 18 19 19 19 18 16 15 16 15 14 14 14 13 12 12 12 11 11 11 11
27 25 24 23 22 21 18 16 14 13 11 10 9 9 10 10 10 10 11 12 13 13 13 13 11 11 12 12 12 12 12 12 11 11 12 12 11 11 10 10 9 9 9 8 8 7 6 5 3 3 4 4 6 8 9 9 8 10 13 14 15 14 14 15 16 18 19 18 17 16 15 14 14 14 13 12 13 12 11 11 11 10 10 10 9
26 25 25 23 21 21 19 17 15 14 11 10 9 9 9 10 10 10 11 11 12 13 12 12 11 11 12 12 12 12 11 12 11 10 11 11 10 10 9 8 8 7 6 6 5 4 3 2 1 2 4 5 9 11 11 10 10 12 14 16 16 16 15 14 14 15 16 16 15 15 14 13 12 12 12 12 12 12 12 12 11 11 10 10 10
25 25 24 22 21 21 20 18 16 14 12 10 9 9 10 10 10 10 11 11 12 12 12 12 11 11 11 12 11 11 11 11 11 10 10 9 9 8 7 6 6 5 4 4 3 3 3 2 3 4 5 8 11 13 12 12 12 13 14 17 17 17 16 15 15 14 14 14 14 13 13 13 12 12 12 13 13 13 12 12 11 11 10 10 10
24 24 23 22 22 21 20 18 16 14 12 10 9 9 9 9 10 11 11 11 12 12 12 11 11 11 11 12 11 10 10 10 10 9 9 8 7 7 6 5 4 3 3 2 3 3 3 4 5 6 6 9 12 13 12 12 13 14 15 17 17 17 17 16 15 15 15 14 13 12 11 12 12 13 12 13 13 12 11 11 10 9 9 9 8
24 24 23 23 22 21 20 18 16 14 12 11 10 9 9 10 10 11 11 11 11 12 12 11 10 11 11 11 10 10 10 10 9 8 8 7 7 6 5 4 3 3 2 2 3 4 4 5 6 7 8 10 12 12 12 12 13 14 15 17 17 17 16 16 15 15 15 14 13 13 12 12 12 11 12 12 11 11 10 10 9 9 8 7 6
23 24 24 23 22 21 19 17 15 14 13 12 11 10 9 9 10 10 11 11 11 11 12 11 10 10 10 10 10 9 9 8 8 8 7 7 6 5 4 4 3 3 3 3 4 4 5 6 8 7 8 11 12 12 12 12 12 13 15 16 16 16 16 15 15 14 14 14 13 12 12 12 12 11 11 11 10 10 9 8 8 8 7 7 6
23 24 23 23 22 20 19 17 16 14 13 12 11 11 9 9 10 10 11 11 10 10 11 10 9 10 10 9 9 8 8 7 7 7 6 6 5 4 4 4 4 3 3 3 3 4 6 8 9 8 8 10 11 11 11 11 12 13 15 15 16 16 15 15 15 14 14 13 13 12 12 11 11 11 11 11 10 10 9 8 8 7 7 6 5
24 23 23 22 21 20 19 17 16 15 14 13 12 11 9 9 10 11 11 11 10 10 11 11 10 9 9 9 9 7 7 7 7 6 5 4 4 3 4 4 4 3 3 3 3 4 6 9 9 8 8 9 10 10 10 10 11 13 14 14 14 15 15 15 14 14 13 13 13 13 13 12 11 11 11 11 11 10 9 9 8 8 7 6 5
24 23 23 22 20 20 19 18 17 15 14 13 12 11 9 8 9 10 10 9 10 10 10 11 10 9 9 8 8 7 6 7 6 5 4 3 2 3 3 4 4 3 3 3 3 5 8 9 9 7 7 8 8 9 9 9 10 12 13 13 13 13 13 14 14 14 14 14 14 14 13 12 11 10 10 10 10 10 9 9 9 9 8 6 5
22 22 22 21 20 19 19 18 17 16 15 14 12 10 8 8 9 10 9 9 10 11 10 10 10 9 9 8 6 5 5 5 5 4 3 2 2 2 3 4 4 3 3 3 4 6 8 10 9 7 6 6 6 7 8 8 8 10 11 11 12 12 12 12 13 13 13 13 13 12 11 10 10 10 10 10 10 10 10 9 9 9 8 8 7
20 20 20 20 20 19 19 18 18 16 15 13 11 10 8 7 8 9 9 9 10 11 10 9 10 10 9 8 6 4 3 4 4 3 3 2 1 2 4 4 4 4 3 3 4 7 9 10 9 7 6 5 4 4 6 7 7 8 9 10 10 10 11 11 11 11 11 11 10 10 10 10 9 9 10 10 10 11 11 10 10 9 8 7 6
18 19 19 20 20 18 18 17 17 15 14 12 10 9 8 8 9 10 10 10 11 11 10 9 9 9 9 8 7 5 3 3 3 3 2 2 2 3 4 5 5 5 4 3 4 7 10 10 9 8 7 5 3 2 3 5 5 6 8 8 9 9 10 10 10 10 10 10 9 9 9 10 10 10 11 11 12 12 11 10 10 9 8 6 5
17 19 19 19 19 18 17 15 15 13 12 11 9 9 9 9 9 10 10 10 11 10 10 9 9 8 8 8 6 5 3 3 3 2 2 2 2 3 4 5 5 5 5 4 4 7 10 11 10 9 8 7 4 2 1 2 3 5 6 7 8 8 9 9 9 9 10 10 9 9 9 10 11 11 11 12 12 12 11 11 9 9 8 6 6
17 18 19 18 18 17 15 13 13 12 11 10 10 10 9 9 9 9 9 10 10 10 10 9 9 7 7 7 5 4 4 3 3 2 2 2 2 2 4 5 5 5 5 4 4 7 10 11 11 10 9 8 6 3 2 0 1 3 4 6 7 7 8 8 8 8 9 10 10 9 9 10 12 12 12 12 12 12 12 11 10 9 8 7 7
18 19 19 19 17 15 14 12 12 11 11 10 10 10 9 9 8 8 8 9 10 9 9 8 8 7 6 6 5 4 3 2 1 2 2 2 2 2 3 4 4 4 5 5 4 6 9 11 12 11 11 10 8 6 3 1 0 1 2 4 5 6 6 7 7 8 8 8 9 9 9 10 11 12 12 12 12 12 12 11 10 9 8 8 7
20 20 19 18 16 14 13 12 12 11 10 10 10 9 9 8 7 8 8 8 9 9 8 7 7 6 5 5 5 4 3 2 1 2 3 3 2 2 3 3 4 4 4 5 4 5 7 11 13 13 12 11 10 8 5 3 1 0 0 1 3 4 4 5 6 6 6 7 7 8 9 10 11 11 12 13 13 12 12 11 10 9 9 8 8
20 19 18 17 15 14 13 12 11 10 10 9 9 9 8 8 7 7 6 6 8 8 7 7 7 5 5 5 5 4 3 2 3 4 4 5 4 3 2 2 2 2 2 4 4 4 5 9 13 14 14 13 12 10 8 5 3 1 1 1 0 2 3 3 4 4 5 6 7 8 9 10 10 11 12 12 12 12 12 11 10 9 8 8 8
18 18 18 16 15 14 12 12 11 10 9 8 8 9 9 8 8 7 6 6 7 7 6 6 5 4 4 5 6 5 4 4 5 5 5 6 5 4 3 2 1 1 1 1 2 3 4 6 10 14 16 14 13 12 10 7 5 3 2 2 2 1 1 2 2 3 4 5 6 6 8 9 10 11 12 12 12 11 11 12 10 8 8 8 7
17 17 17 15 14 13 12 11 11 10 10 10 10 10 10 10 9 9 9 9 8 7 6 6 6 6 6 6 6 6 5 5 5 4 4 4 4 4 3 2 1 0 0 1 1 2 3 4 6 11 15 17 15 14 11 9 7 5 4 4 4 4 3 3 2 3 4 4 4 5 7 8 9 10 12 12 11 10 11 12 10 9 8 8 7
18 18 17 15 14 12 12 11 10 10 11 11 12 12 12 12 12 11 11 10 9 8 7 7 7 7 7 7 7 5 5 4 3 3 2 2 2 2 2 2 1 1 1 2 2 2 3 3 4 6 11 16 18 16 14 12 10 8 7 6 6 6 5 5 4 4 5 5 4 5 6 7 8 10 11 11 11 10 10 11 10 9 8 8 7
20 19 17 15 14 13 12 10 10 11 12 13 12 12 12 12 12 11 10 10 9 9 8 8 8 7 7 6 5 3 2 2 1 1 1 1 1 1 1 2 2 2 2 2 3 4 5 5 4 5 7 12 17 19 17 14 12 10 9 9 8 8 7 7 6 6 6 7 7 6 6 7 8 9 10 11 10 9 10 10 10 9 8 8 7
21 19 16 15 14 13 12 11 11 12 12 13 12 12 11 11 11 10 10 9 8 8 7 7 6 5 5 4 3 1 0 1 2 3 3 3 3 3 3 3 3 4 4 4 4 4 6 7 6 6 6 8 14 19 19 17 15 13 12 11 10 10 9 9 8 8 9 9 9 8 7 7 8 9 9 10 10 9 9 9 10 9 8 8 6
21 19 17 16 14 13 12 11 12 12 12 12 12 12 11 10 10 9 8 8 7 7 6 5 5 4 3 2 1 0 1 2 4 5 5 6 6 6 7 6 5 5 5 5 6 6 6 7 8 8 7 7 11 17 20 19 17 16 15 13 12 11 10 10 10 10 11 11 11 11 10 9 9 9 9 9 9 8 9 9 8 8 8 6 4
20 19 17 16 15 14 12 12 12 12 12 11 11 11 10 9 9 8 7 7 6 5 4 3 3 2 1 0 1 1 2 3 4 5 6 7 7 8 9 8 7 6 6 6 6 7 7 7 8 9 10 9 9 13 18 19 18 17 17 16 14 12 12 12 12 12 12 12 12 13 12 11 10 10 10 10 9 8 9 9 8 7 7 5 3
20 18 16 15 15 14 13 12 12 12 11 11 11 10 9 9 8 7 6 6 5 4 3 2 1 1 1 1 1 2 3 4 4 4 4 5 6 7 7 8 8 8 7 7 7 7 7 8 8 9 11 11 10 12 15 18 20 18 18 18 17 15 15 15 15 15 14 13 12 13 13 13 12 12 12 11 10 9 8 9 9 7 7 5 3
18 17 15 15 16 14 13 12 11 11 10 10 10 9 9 8 7 7 6 5 4 4 3 2 1 1 1 1 2 2 3 3 3 3 3 4 5 5 6 7 8 8 8 8 7 7 7 8 9 10 11 12 13 14 16 19 21 21 21 21 20 20 19 18 17 17 16 16 14 12 13 14 14 13 13 13 12 10 8 8 9 8 7 5 4
16 17 15 15 16 14 12 11 11 10 9 10 9 9 8 7 7 6 5 4 3 3 3 2 2 1 1 1 2 2 3 3 4 4 4 4 4 5 6 7 9 9 9 9 8 8 8 8 9 10 12 13 14 15 17 19 22 23 23 23 23 23 22 21 19 19 18 17 17 15 14 15 15 14 14 14 14 12 10 9 10 9 7 6 5
16 16 15 15 15 14 12 11 11 9 9 9 9 8 8 7 6 5 5 4 3 3 3 2 2 0 1 2 2 2 3 4 4 5 5 5 5 5 6 7 8 9 10 10 9 9 9 9 9 10 11 13 14 16 17 19 22 24 24 25 25 25 24 22 22 21 20 18 17 16 16 15 16 16 15 16 16 14 12 11 10 10 8 6 6
17 16 15 15 14 13 12 11 11 10 9 9 9 8 7 6 5 5 5 4 4 3 2 2 1 1 1 2 2 3 3 4 4 5 5 6 6 6 7 7 7 8 9 9 10 10 9 8 8 9 10 12 13 15 17 18 20 23 25 25 26 26 24 23 23 23 22 21 19 17 17 17 17 17 17 17 17 16 14 13 12 11 10 8 8
17 16 14 16 14 12 12 12 11 10 9 9 8 7 6 5 5 5 5 4 4 3 3 3 2 2 2 3 3 3 3 3 4 4 5 5 5 5 6 7 8 8 8 8 9 10 9 9 9 9 9 9 10 12 14 15 15 18 21 23 24 25 24 23 22 22 23 23 21 19 18 18 18 18 18 18 18 17 16 15 13 12 11 9 9
15 16 15 15 14 12 13 13 12 11 10 8 7 7 6 6 5 5 5 4 4 4 3 3 3 3 2 2 2 2 3 4 4 5 6 6 6 5 5 7 8 8 8 8 9 9 9 9 10 11 10 10 10 11 13 14 13 14 16 18 20 21 21 21 21 21 20 21 21 21 21 20 19 19 20 20 19 19 18 17 15 14 12 10 11
14 16 16 14 13 13 13 13 12 11 10 9 8 7 7 6 5 4 4 3 3 2 1 1 2 2 2 1 2 3 4 5 5 6 7 7 7 6 5 6 7 8 8 8 8 9 10 10 10 11 11 12 11 11 12 14 15 15 16 16 17 17 17 18 18 18 18 19 20 22 23 22 20 20 21 21 21 21 20 19 18 15 14 12 12
14 15 15 14 13 12 12 11 11 10 10 9 8 7 7 5 4 4 4 3 2 1 1 0 1 1 1 2 4 4 5 7 7 6 7 7 7 6 6 6 7 8 8 8 8 8 9 10 11 11 12 12 11 10 10 11 13 16 17 17 17 17 17 17 18 18 18 18 19 20 22 23 22 21 22 23 23 23 22 22 20 17 16 14 14
16 16 15 14 12 11 11 11 10 10 9 8 7 6 6 5 5 4 3 2 2 1 0 1 1 2 2 4 5 4 5 7 8 7 6 6 5 5 5 6 6 6 7 8 8 8 8 9 9 10 10 11 10 9 9 10 11 13 14 16 17 17 17 18 18 18 17 16 16 17 18 20 20 21 22 23 23 24 24 23 23 21 18 16 16
17 16 14 13 12 11 10 10 9 8 8 7 6 5 5 5 5 4 3 2 1 1 1 1 1 3 3 3 4 4 5 6 6 8 8 7 6 6 6 6 5 6 7 8 8 8 9 9 9 9 10 9 9 9 9 8 10 12 12 14 15 15 16 17 16 16 15 15 15 15 15 16 16 18 21 23 22 23 24 24 24 23 21 19 18
16 14 13 12 11 9 9 8 7 6 5 5 4 3 3 3 2 2 2 1 1 2 0 1 1 1 3 3 3 3 4 5 6 7 8 8 8 8 8 8 7 6 7 8 9 9 9 10 10 11 11 11 10 11 11 9 10 11 10 11 13 14 14 12 14 15 15 16 16 15 15 15 14 16 18 20 19 21 24 25 24 24 23 22 20
16 15 13 10 9 9 7 7 6 5 3 3 2 1 1 1 1 1 1 1 1 1 1 0 2 4 5 5 5 4 5 7 7 7 7 7 9 9 10 11 11 10 10 11 10 10 11 11 11 12 12 12 12 13 12 12 12 11 11 13 12 12 13 13 16 17 16 16 16 16 16 16 16 17 18 18 17 18 23 24 24 25 25 24 23
16 14 12 10 8 8 7 5 4 3 2 1 1 1 1 2 2 2 3 3 4 2 1 3 5 5 5 5 6 7 8 9 10 11 10 10 10 10 11 13 13 13 13 12 11 12 13 12 12 13 12 12 12 13 14 15 15 14 13 14 13 14 16 17 18 18 17 17 18 18 18 18 17 18 18 17 17 17 19 21 22 23 25 26 25
14 11 10 8 7 6 5 3 1 0 2 3 3 3 3 3 4 3 3 2 1 1 2 3 5 5 4 5 7 8 9 10 12 13 12 12 12 12 13 15 16 16 14 11 10 11 12 12 13 12 11 12 12 13 14 15 16 16 16 15 15 16 16 16 17 18 20 20 19 19 20 20 19 18 18 18 19 19 18 19 20 22 24 27 27
11 9 8 8 6 5 4 3 3 2 3 3 4 3 2 2 2 2 2 2 3 3 3 3 4 4 5 7 8 9 9 10 11 13 13 11 10 12 14 15 17 17 16 11 10 10 11 12 12 11 11 11 13 15 15 15 16 17 18 17 17 17 16 17 18 19 21 23 23 21 20 20 20 21 21 21 21 21 20 20 20 21 23 25 25
9 8 8 7 5 4 3 3 3 4 5 6 6 6 5 3 3 3 3 3 2 1 1 2 3 5 6 7 7 8 9 10 12 14 14 13 12 13 14 15 16 16 14 13 13 14 13 13 12 12 12 12 13 15 15 16 17 18 18 18 18 19 19 19 20 20 21 23 23 21 19 19 20 21 21 21 20 20 20 21 21 22 23 23 24
9 9 7 6 4 4 3 2 3 5 6 7 8 9 8 6 4 3 2 2 2 4 4 5 7 9 9 10 10 11 12 13 14 14 15 15 12 11 11 12 14 14 13 14 15 13 13 15 15 12 11 12 12 14 14 15 17 17 17 18 18 19 20 20 20 20 20 21 23 22 20 19 21 22 21 20 20 19 19 20 21 22 24 24 24
9 9 7 4 3 3 1 3 5 7 8 10 11 12 11 9 7 6 5 6 7 8 9 10 11 11 11 12 12 13 14 14 14 14 14 13 11 10 11 11 13 14 14 15 15 11 9 12 15 11 8 11 12 12 14 14 16 18 17 17 18 18 19 20 20 20 20 21 22 23 21 19 22 23 21 21 20 19 19 21 22 23 24 24 25
Wind_Direction
177 173 174 178 173 172 169 178 185 172 162 150 141 135 134 129 126 122 120 119 120 121 120 120 120 120 119 119 117 117 119 120 121 121 121 119 118 115 112 110 109 108 107 110 111 111 111 111 111 109 102 90 76 71 72 76 87 107 121 121 116 114 113 112 112 109 113 118 119 117 108 103 102 105 112 122 129 125 113 105 102 98 95 92 93
172 170 173 178 173 172 169 178 185 172 165 152 141 135 133 130 128 124 121 121 123 124 123 122 121 121 120 120 118 119 120 122 124 124 121 119 117 115 113 110 110 109 110 112 112 113 114 114 110 106 97 86 79 76 75 78 87 104 121 126 123 121 119 116 114 110 111 116 120 117 111 110 110 114 120 124 127 125 118 112 105 97 94 93 93
169 166 172 177 172 172 170 179 183 173 167 153 141 135 133 130 129 125 123 124 126 127 125 124 123 124 123 122 121 123 125 127 128 125 120 116 115 115 114 112 112 111 112 112 112 115 114 111 107 101 94 88 84 81 80 80 86 100 113 124 129 129 128 124 120 117 115 116 118 116 113 109 108 114 117 119 121 122 120 113 106 99 95 93 94
168 165 171 174 171 171 170 179 181 174 167 156 143 136 133 130 129 126 124 127 130 129 128 126 126 126 125 125 125 127 130 132 132 126 118 114 113 115 114 113 113 113 114 114 114 115 114 111 107 100 93 90 87 86 87 83 86 96 102 110 122 129 130 128 123 119 115 115 116 114 112 108 108 113 115 117 118 117 114 107 103 99 96 95 95
167 167 171 171 170 170 171 180 181 175 168 159 147 138 133 131 131 129 127 130 132 131 130 128 128 128 127 128 128 131 133 135 133 125 118 114 114 113 113 114 114 114 114 115 115 114 113 111 107 101 95 93 93 92 91 89 90 92 93 99 109 118 123 122 118 114 111 113 115 112 109 108 108 110 113 114 111 108 105 101 101 100 98 96 92
167 168 170 169 169 168 171 181 181 177 171 164 151 140 134 132 133 133 132 134 136 133 131 130 130 129 128 130 131 134 135 136 132 123 118 116 115 114 114 115 115 114 114 115 114 113 112 110 106 102 99 101 100 96 93 92 91 86 88 96 102 110 116 117 115 112 112 114 113 109 107 107 106 106 108 108 107 105 103 103 102 98 95 94 92
168 169 168 170 170 168 172 182 184 179 174 168 155 140 135 134 137 138 135 137 139 136 133 132 132 132 131 132 133 134 133 132 126 121 119 117 115 115 116 115 116 114 116 119 115 113 111 108 103 101 106 112 109 101 95 89 84 79 81 89 94 103 110 113 113 113 116 115 112 110 108 108 107 107 107 107 107 105 102 101 97 92 89 88 85
167 168 169 172 171 169 172 183 186 181 179 171 156 142 138 139 141 143 140 141 142 138 136 134 134 134 134 135 133 131 130 126 123 124 120 118 119 118 118 116 117 116 119 122 119 116 111 109 100 96 119 127 118 104 96 88 85 82 81 84 88 97 107 111 114 117 118 116 114 113 111 110 109 108 107 105 103 100 97 95 93 89 85 82 78
168 169 171 173 172 170 172 184 188 186 184 173 159 146 142 143 146 147 145 145 146 143 139 137 137 136 135 135 132 129 128 126 125 126 120 120 123 120 120 119 119 122 124 125 125 125 122 123 99 95 134 130 109 104 100 97 97 92 86 86 87 94 101 106 112 115 114 114 113 110 107 105 104 104 104 101 98 96 91 87 86 83 80 77 71
170 171 173 173 172 172 175 184 189 189 185 174 163 151 148 149 149 149 149 149 150 149 144 141 139 137 137 136 130 128 129 129 127 123 121 123 125 121 120 122 122 127 135 135 136 146 159 172 129 127 136 108 98 103 105 107 104 96 91 89 88 90 93 97 101 100 100 102 101 98 98 97 95 93 89 84 84 84 79 73 68 65 63 59 52
173 174 175 175 173 174 179 185 190 191 186 177 169 158 154 155 150 149 151 150 153 155 151 148 141 137 141 137 128 130 133 133 130 124 124 125 124 121 120 122 121 132 154 156 167 185 184 169 138 141 126 102 100 104 107 107 103 98 94 91 88 88 89 91 91 87 84 87 88 88 89 89 84 78 72 68 68 68 66 62 56 52 49 45 41
175 176 176 175 175 177 181 186 189 188 186 183 174 166 160 158 151 149 151 149 155 160 157 153 146 141 141 136 130 135 138 134 132 131 129 125 123 121 119 127 134 151 175 167 171 166 144 131 137 140 123 108 105 107 107 105 101 97 94 91 88 87 88 88 88 84 81 80 77 73 73 78 76 70 66 62 60 57 54 51 47 43 41 39 34
176 176 176 176 177 179 182 185 187 188 187 187 180 173 166 159 153 149 149 151 157 161 160 156 149 144 141 139 138 140 141 139 138 135 131 127 123 119 112 112 127 142 142 140 145 138 129 131 141 141 124 114 110 108 104 100 97 95 92 89 87 86 87 88 87 85 82 78 71 65 64 71 73 66 62 58 54 50 45 43 38 33 32 28 23
180 178 177 178 179 179 182 185 186 188 188 190 186 181 173 160 152 147 148 154 160 162 161 153 151 148 142 141 141 141 142 141 140 135 133 129 120 112 94 81 92 99 106 119 133 130 127 137 145 143 129 118 112 106 100 96 94 92 91 89 88 86 85 87 87 85 82 79 74 68 64 68 70 64 61 55 51 48 44 39 30 25 22 18 15
181 181 180 180 180 179 182 185 187 189 191 192 191 188 176 159 151 147 150 160 162 162 160 148 145 148 145 143 139 140 144 143 141 138 132 122 112 95 73 73 83 85 97 111 126 129 132 145 152 148 134 122 113 105 97 95 93 90 89 88 87 85 84 86 87 86 83 79 75 70 65 67 67 64 60 52 48 45 41 36 25 18 13 12 13
180 182 183 181 180 181 183 185 189 190 193 194 195 193 175 161 154 149 151 161 165 163 161 148 141 145 147 148 142 141 151 154 150 143 136 123 104 75 59 70 81 80 95 114 129 138 144 153 158 154 139 125 116 106 99 95 92 88 88 88 86 85 83 84 85 85 81 77 74 70 68 68 66 60 54 46 39 32 26 23 14 7 3 6 8
179 181 182 182 181 183 185 187 190 191 194 196 198 192 176 164 155 152 151 157 167 164 158 150 146 146 146 150 151 156 168 168 160 154 146 131 101 59 51 71 83 81 98 124 139 150 156 159 164 163 148 132 122 110 101 94 90 88 88 88 87 87 84 83 82 81 78 75 72 68 67 64 59 51 43 35 29 23 15 9 3 355 354 355 355
178 180 179 182 183 184 186 188 191 193 196 198 197 190 177 164 154 155 151 153 166 164 157 151 150 148 143 143 151 168 185 176 164 163 159 143 107 59 61 82 88 82 93 125 145 157 163 166 172 175 163 142 128 114 102 91 87 89 90 89 88 87 86 84 81 79 76 73 69 64 61 54 48 39 32 28 24 22 16 8 360 353 352 350 348
175 176 176 182 186 189 189 192 195 196 198 198 196 188 172 159 157 157 154 155 160 160 157 149 150 150 141 139 146 160 186 185 176 171 165 154 116 76 84 95 96 87 88 120 146 162 169 171 179 190 187 166 139 115 100 92 86 87 90 89 87 87 86 84 80 78 73 69 65 58 51 44 37 33 33 32 29 25 19 10 1 355 350 347 345
173 172 177 184 188 192 194 196 196 196 197 194 191 182 167 158 160 161 158 156 153 155 158 148 148 149 144 148 152 148 154 173 176 177 175 160 125 94 100 105 103 94 87 108 143 166 174 179 187 199 205 200 171 131 99 94 88 89 91 89 87 85 82 81 78 75 71 65 60 52 44 39 37 38 37 34 30 24 18 10 3 356 350 349 347
172 174 181 186 189 194 196 197 194 192 190 186 180 174 167 161 164 165 159 157 155 153 157 151 145 146 152 156 154 153 157 150 145 159 160 146 121 97 107 113 112 107 99 108 143 170 181 186 194 203 214 224 210 189 170 95 91 96 95 91 86 83 81 78 75 72 70 63 56 51 47 46 44 42 37 31 27 21 16 10 5 358 355 353 348
171 176 184 187 190 194 193 191 186 183 182 177 172 171 169 165 165 164 160 164 164 156 155 154 150 151 157 156 156 173 186 172 154 145 131 128 120 101 109 113 116 115 110 113 141 172 187 193 199 207 218 235 236 224 226 241 84 95 98 97 87 85 83 78 73 68 66 62 59 55 51 50 45 40 35 29 22 17 13 9 7 3 360 354 346
173 178 184 187 191 190 184 180 177 175 175 170 168 171 171 165 161 161 165 170 169 164 160 157 155 153 156 157 163 177 179 175 157 114 118 127 112 102 111 112 120 123 120 120 137 172 190 198 203 209 220 238 248 246 238 242 144 83 90 101 93 88 83 77 72 64 62 58 56 51 45 44 40 36 31 25 18 13 12 10 9 6 4 354 342
175 179 183 187 186 181 176 172 171 170 169 167 167 169 169 165 161 161 169 173 169 169 164 156 158 159 160 162 167 166 144 126 67 72 100 115 100 83 104 115 125 131 135 130 136 167 192 202 207 212 220 234 249 257 253 248 241 222 307 95 94 87 77 75 71 60 55 49 47 44 39 37 34 32 29 22 14 11 10 10 10 6 3 353 339
175 179 182 184 179 174 171 168 166 167 165 164 165 167 167 165 161 158 162 164 161 164 161 153 158 160 161 165 168 161 134 108 75 77 93 105 101 79 81 105 120 127 141 141 145 161 191 207 212 215 220 230 242 255 259 258 258 246 257 268 71 75 66 62 58 48 42 36 37 37 33 32 28 26 25 20 13 9 8 9 11 5 358 352 340
174 179 181 179 174 170 168 165 164 164 161 158 160 161 160 158 152 146 141 139 143 149 148 145 145 140 144 157 163 154 129 112 91 84 86 89 88 76 70 74 98 107 121 143 157 166 185 209 219 221 222 228 235 247 255 259 260 254 250 252 265 290 350 9 17 20 24 26 29 28 25 25 21 18 17 15 10 7 5 5 8 4 353 350 344
174 179 179 175 171 168 165 165 165 161 156 153 152 150 146 141 134 128 124 124 127 127 124 119 115 116 124 133 141 139 124 111 96 86 80 74 69 66 65 65 67 345 260 259 224 198 199 208 225 228 227 228 232 239 246 251 253 253 255 256 264 275 295 310 325 348 359 5 11 13 15 15 11 10 10 9 6 4 4 359 359 3 355 349 348
179 180 176 173 169 166 165 166 165 158 151 146 141 137 133 128 124 121 120 120 118 115 109 100 98 102 108 114 120 124 119 106 97 93 85 75 53 42 34 29 12 331 280 264 264 257 245 227 233 240 237 232 231 234 239 244 248 252 258 263 269 276 289 298 301 316 325 330 338 348 358 1 359 2 3 1 2 4 1 355 353 358 355 350 352
182 179 175 173 170 166 165 166 164 157 149 142 136 132 128 124 123 120 120 121 119 114 104 95 92 96 101 106 108 106 99 71 53 34 37 36 356 353 343 327 301 295 292 285 270 263 260 254 250 252 253 242 234 233 235 240 243 248 255 260 267 274 283 289 291 296 304 309 315 323 334 340 343 351 355 354 357 1 355 349 349 353 355 351 349
180 178 176 173 170 166 165 165 162 156 148 140 136 133 129 128 127 124 125 122 122 117 107 99 92 97 101 105 111 112 86 331 313 315 328 337 338 344 343 329 302 290 291 292 282 271 262 255 254 254 263 258 243 236 234 238 241 245 251 257 263 269 276 283 288 291 294 296 299 305 311 321 329 337 343 345 348 353 349 342 342 347 351 346 338
179 178 178 175 170 165 164 165 161 154 147 140 137 138 136 136 131 128 130 125 126 124 117 106 93 97 102 113 144 256 305 308 302 308 317 324 330 333 334 329 315 300 294 292 284 279 272 259 251 249 255 259 252 242 237 238 242 247 251 255 259 265 271 278 285 290 293 294 293 295 299 307 315 322 327 331 336 344 344 335 334 334 334 333 325
179 178 179 175 168 165 164 164 159 153 149 144 142 144 143 140 136 132 130 127 130 130 129 118 102 99 89 105 315 329 334 333 328 325 323 323 325 325 325 321 312 303 297 293 287 280 278 274 257 248 248 251 253 246 242 241 244 248 250 252 257 264 271 275 280 285 290 296 297 292 291 297 304 308 312 316 322 332 336 331 329 325 322 328 325
178 177 177 173 167 165 165 162 158 155 152 152 150 150 148 144 141 137 134 135 139 141 145 142 132 107 35 356 342 341 342 345 344 336 326 318 315 315 313 308 305 302 299 293 287 281 277 281 273 260 251 247 248 243 242 242 243 247 248 250 256 264 271 274 277 279 282 290 297 293 286 289 295 298 301 304 309 317 325 324 323 321 318 321 311
176 175 174 172 168 167 166 161 157 158 160 161 159 156 154 156 155 154 154 153 156 163 162 166 165 121 36 358 342 334 333 332 327 321 306 299 297 299 302 301 302 301 301 297 288 281 274 277 277 270 259 250 248 243 240 241 242 246 247 250 257 265 269 271 274 277 279 284 291 291 284 285 288 291 292 294 299 302 309 314 312 313 311 305 282
175 174 172 170 170 169 165 160 159 162 165 167 166 164 165 172 173 171 173 166 166 172 167 165 154 110 31 336 327 319 322 317 314 309 293 289 282 288 296 297 301 301 301 302 294 286 278 276 275 271 266 259 254 249 245 242 242 244 247 250 256 263 267 268 271 274 278 281 285 286 283 282 282 285 286 286 289 290 295 302 302 302 302 293 268
176 175 174 170 170 172 166 161 165 167 171 172 171 173 177 178 174 168 166 157 153 156 155 153 147 114 334 324 321 318 320 314 310 307 299 297 292 291 292 290 296 299 300 304 301 295 290 285 281 276 272 267 264 259 254 250 246 246 249 253 255 259 263 266 268 270 274 278 282 283 280 280 279 280 279 279 280 281 285 291 291 291 291 283 260
177 176 176 173 174 176 168 166 171 173 179 179 175 180 182 171 157 148 143 139 142 143 149 151 165 235 296 307 302 301 303 304 303 304 305 304 304 301 299 298 299 300 300 303 302 299 299 295 285 281 279 277 275 270 265 261 256 252 252 256 259 260 262 264 265 267 270 274 279 280 278 278 276 274 273 272 273 273 276 282 283 281 280 273 255
175 174 175 175 179 178 170 171 175 179 186 184 180 179 172 160 149 142 139 144 156 162 174 184 213 242 273 279 276 279 280 291 297 306 313 313 314 312 310 311 309 309 308 303 299 297 301 303 295 291 292 289 286 282 276 274 270 262 257 257 260 261 263 264 266 267 269 270 272 275 277 276 273 271 269 267 266 266 266 271 275 271 270 264 251
169 173 174 175 179 177 171 174 179 184 188 187 181 170 161 164 158 150 155 164 175 179 190 216 235 240 265 278 268 275 287 299 317 332 339 340 335 329 317 310 310 311 307 302 301 301 302 305 303 301 301 297 293 290 284 281 280 273 264 261 260 262 264 266 268 269 269 269 269 270 272 273 272 269 267 265 261 259 258 263 269 266 262 259 249
170 173 170 172 175 172 170 174 179 181 181 181 173 166 167 172 165 160 169 169 173 178 197 254 264 257 271 296 291 310 319 316 338 356 353 353 349 343 330 316 316 313 310 313 313 312 312 313 313 310 308 304 299 294 288 283 280 277 272 268 266 265 266 268 269 270 272 272 270 267 266 268 269 267 264 261 258 256 254 257 263 261 256 252 246
170 166 162 168 169 166 168 170 173 172 173 175 171 170 174 176 170 163 167 158 145 140 56 3 318 312 285 290 294 314 326 321 336 351 351 354 351 345 337 326 324 320 321 322 313 312 317 320 321 319 315 311 305 299 290 284 281 281 280 279 277 274 272 273 274 276 276 274 272 269 265 265 265 265 264 262 260 257 252 252 257 257 251 246 244
156 157 161 167 164 161 166 168 169 167 167 170 173 178 175 176 179 173 169 165 159 168 66 49 325 299 287 285 294 310 321 329 338 335 340 353 348 342 335 325 325 325 322 315 308 309 313 317 319 318 316 313 309 304 293 288 285 284 287 289 288 284 281 280 279 280 280 276 272 271 268 266 265 266 265 263 263 260 254 252 253 252 248 241 239
148 155 159 160 160 160 165 167 167 168 166 163 171 184 179 177 181 173 170 173 138 84 340 321 295 281 289 297 308 322 319 325 328 323 335 343 335 337 333 330 332 325 317 314 318 318 313 315 314 314 315 310 310 311 304 291 280 283 290 289 288 291 291 289 287 286 286 283 280 277 273 272 271 271 268 265 265 262 256 253 251 251 250 242 235
140 142 143 146 151 151 154 154 153 166 174 168 175 195 186 174 168 173 186 211 42 39 331 172 112 280 292 301 291 289 296 305 312 323 337 334 327 331 328 328 328 325 322 319 323 320 314 316 314 314 315 312 313 313 315 308 287 284 284 282 286 290 289 290 294 295 293 290 287 285 279 275 275 276 274 271 270 265 260 258 257 255 252 244 235
128 125 127 130 132 133 137 144 150 162 172 173 183 205 203 167 120 190 179 142 137 132 205 232 338 314 312 313 304 306 315 321 326 331 336 328 323 325 322 320 316 317 318 316 319 318 316 318 314 314 315 314 310 305 311 314 306 296 278 275 284 286 286 294 299 298 295 290 288 288 284 280 278 275 275 277 275 268 263 263 261 255 249 244 236
125 122 121 118 121 127 130 139 153 166 187 210 199 205 243 227 206 202 190 192 208 221 278 317 334 351 4 357 355 356 346 339 335 336 338 333 326 323 319 316 315 319 321 319 319 316 315 315 311 312 311 309 306 303 306 305 304 304 289 276 275 277 286 295 296 293 294 291 288 288 287 286 283 275 271 273 276 272 267 266 263 254 247 244 238
122 122 118 115 117 121 123 123 115 316 278 277 271 255 248 234 226 218 201 213 242 79 55 16 15 35 27 352 348 347 337 333 332 333 338 338 333 328 322 322 325 329 332 332 325 318 316 313 310 311 309 306 304 301 301 298 296 300 298 292 287 283 284 287 287 290 294 294 290 289 288 287 286 279 272 272 276 277 273 270 266 256 247 245 244
123 130 125 123 117 113 118 98 71 45 16 348 325 308 293 286 298 333 16 29 54 75 58 24 11 351 322 318 322 323 324 325 323 324 326 324 321 318 318 322 325 328 334 338 331 322 316 311 309 309 306 304 304 300 297 295 292 293 297 297 296 293 290 288 287 288 289 290 290 291 291 289 285 280 277 275 275 276 277 274 270 263 254 250 250
132 145 134 127 117 103 107 81 62 45 32 15 360 353 339 335 346 359 14 25 33 21 338 327 305 300 302 310 311 309 311 310 311 314 314 313 313 311 312 317 318 322 330 328 324 327 326 317 309 311 312 308 302 299 296 293 289 289 294 294 293 294 294 292 292 290 286 286 290 292 292 292 289 285 282 280 276 273 275 276 273 268 262 256 253
141 150 137 124 116 101 98 48 22 12 7 353 344 340 333 326 310 296 299 317 307 288 279 274 277 281 283 288 291 295 301 304 306 309 312 320 325 318 312 312 313 315 317 312 315 329 336 324 316 321 323 313 305 302 300 296 291 289 290 291 292 293 291 290 290 289 285 285 289 290 290 290 289 287 283 282 280 274 271 271 272 269 264 259 255
141 146 138 128 111 87 53 333 338 342 340 335 331 328 326 322 310 301 290 279 276 276 279 282 286 289 290 295 300 307 314 315 315 317 320 327 330 321 315 313 317 320 319 317 317 319 314 306 309 317 312 302 305 304 302 301 299 298 296 291 290 288 287 288 289 288 286 286 287 286 285 286 287 288 286 285 282 275 267 264 265 267 265 261 257